{"data":{"norad_id":1520,"epoch":"2026-09-20T00:54:59.489856Z","epoch_age_seconds":51164,"freshness":"FRESH","line1":"1 01520U 65065H   26263.03818854  .00000070  00000+0  11630-3 0  9996","line2":"2 01520  89.8893 121.5283 0069001 194.5870 312.0989 13.36291672975370","mean_motion":13.36291672,"eccentricity":0.0069001,"inclination_deg":89.8893,"raan_deg":121.5283,"arg_perigee_deg":194.587,"mean_anomaly_deg":312.0989,"bstar":0.0001163,"rev_number":97537,"period_min":107.76090506085,"perigee_km":1071.3655234642,"apogee_km":1174.884439058,"semimajor_km":7501.2619812611,"source":"CELESTRAK","updated_at":"2026-09-20T09:00:47.875719Z"}}